| time (UTC) | temp C | wind direction | speed KPH | gust KPH | rain 1hr cm | rain 24hr cm | rain mn cm | humidity % | barometer mb |
| 20260508105939 | 8 | 221 | 11.3 | 12.9 | 0.00 | 0.05 | 0.05 | 84 | 1012.0 |
| 20260508105436 | 8 | 277 | 4.8 | 9.7 | 0.00 | 0.05 | 0.05 | 85 | 1011.9 |
| 20260508104933 | 8 | 267 | 8.0 | 14.5 | 0.00 | 0.05 | 0.05 | 84 | 1011.9 |
| 20260508104431 | 8 | 258 | 6.4 | 8.0 | 0.00 | 0.05 | 0.05 | 84 | 1011.7 |
| 20260508103927 | 8 | 258 | 12.9 | 14.5 | 0.00 | 0.05 | 0.05 | 85 | 1012.0 |
| 20260508103425 | 8 | 285 | 6.4 | 11.3 | 0.00 | 0.05 | 0.05 | 85 | 1011.9 |
| 20260508102921 | 7 | 246 | 8.0 | 14.5 | 0.13 | 0.05 | 0.05 | 85 | 1012.1 |
| 20260508102420 | 7 | 215 | 11.3 | 12.9 | 0.30 | 0.05 | 0.05 | 86 | 1012.3 |
| 20260508101917 | 8 | 240 | 8.0 | 11.3 | 0.18 | 0.03 | 0.03 | 83 | 1012.4 |
| 20260508101414 | 8 | 248 | 8.0 | 14.5 | 0.00 | 0.00 | 0.00 | 81 | 1012.1 |
| 20260508100911 | 8 | 260 | 3.2 | 8.0 | 0.00 | 0.00 | 0.00 | 81 | 1011.7 |
| 20260508100410 | 8 | 256 | 3.2 | 4.8 | 0.00 | 0.00 | 0.00 | 80 | 1012.0 |
| 20260508095905 | 8 | 258 | 9.7 | 11.3 | 0.00 | 0.00 | 0.00 | 81 | 1011.9 |
| 20260508095403 | 8 | 266 | 3.2 | 4.8 | 0.00 | 0.00 | 0.00 | 82 | 1011.7 |
| 20260508094900 | 7 | 269 | 6.4 | 9.7 | 0.00 | 0.00 | 0.00 | 84 | 1012.0 |
| 20260508094357 | 7 | 321 | 0.0 | 0.0 | 0.00 | 0.00 | 0.00 | 86 | 1011.9 |
| 20260508093854 | 7 | 312 | 0.0 | 3.2 | 0.00 | 0.00 | 0.00 | 87 | 1012.0 |
| 20260508093351 | 6 | 303 | 1.6 | 1.6 | 0.00 | 0.00 | 0.00 | 87 | 1012.0 |
| 20260508092848 | 6 | 275 | 3.2 | 3.2 | 0.00 | 0.00 | 0.00 | 87 | 1012.3 |
| 20260508092346 | 6 | 321 | 3.2 | 3.2 | 0.00 | 0.00 | 0.00 | 87 | 1012.0 |
| 20260508091844 | 7 | 305 | 1.6 | 3.2 | 0.00 | 0.00 | 0.00 | 86 | 1011.9 |
| 20260508091340 | 7 | 251 | 3.2 | 4.8 | 0.00 | 0.00 | 0.00 | 85 | 1012.1 |
| 20260508090838 | 7 | 234 | 8.0 | 9.7 | 0.00 | 0.00 | 0.00 | 84 | 1012.2 |
| 20260508090337 | 7 | 283 | 4.8 | 8.0 | 0.00 | 0.00 | 0.00 | 84 | 1012.4 |
| 20260508085832 | 7 | 255 | 6.4 | 9.7 | 0.00 | 0.00 | 0.00 | 84 | 1012.3 |
| 20260508085329 | 7 | 243 | 8.0 | 11.3 | 0.00 | 0.00 | 0.00 | 84 | 1012.2 |
| 20260508084825 | 7 | 256 | 4.8 | 14.5 | 0.00 | 0.00 | 0.00 | 83 | 1012.3 |
| 20260508084322 | 7 | 215 | 4.8 | 4.8 | 0.00 | 0.00 | 0.00 | 84 | 1012.3 |
| 20260508083820 | 7 | 270 | 3.2 | 9.7 | 0.00 | 0.00 | 0.00 | 84 | 1012.2 |
| 20260508083317 | 7 | 230 | 4.8 | 12.9 | 0.00 | 0.00 | 0.00 | 84 | 1012.4 |
| 20260508082816 | 7 | 238 | 4.8 | 8.0 | 0.00 | 0.00 | 0.00 | 85 | 1012.4 |
| 20260508082315 | 7 | 309 | 1.6 | 8.0 | 0.00 | 0.00 | 0.00 | 86 | 1012.3 |
| 20260508081812 | 6 | 280 | 4.8 | 4.8 | 0.00 | 0.00 | 0.00 | 86 | 1012.3 |
| 20260508081308 | 6 | 271 | 3.2 | 3.2 | 0.00 | 0.00 | 0.00 | 87 | 1012.2 |
| 20260508080806 | 7 | 309 | 0.0 | 3.2 | 0.00 | 0.00 | 0.00 | 87 | 1012.2 |
| 20260508080304 | 7 | 284 | 1.6 | 9.7 | 0.00 | 0.00 | 0.00 | 85 | 1012.2 |
| 20260508075759 | 7 | 290 | 4.8 | 8.0 | 0.00 | 0.00 | 0.00 | 85 | 1012.5 |
| 20260508075256 | 7 | 233 | 8.0 | 9.7 | 0.00 | 0.00 | 0.00 | 85 | 1012.3 |
| 20260508074755 | 7 | 238 | 6.4 | 9.7 | 0.00 | 0.00 | 0.00 | 84 | 1012.3 |
| 20260508074251 | 7 | 245 | 4.8 | 11.3 | 0.00 | 0.00 | 0.00 | 83 | 1012.5 |
| 20260508073749 | 7 | 293 | 1.6 | 12.9 | 0.00 | 0.00 | 0.00 | 83 | 1012.4 |
| 20260508073247 | 7 | 243 | 11.3 | 16.1 | 0.00 | 0.00 | 0.00 | 82 | 1012.2 |
| 20260508072742 | 7 | 237 | 6.4 | 11.3 | 0.00 | 0.00 | 0.00 | 82 | 1012.5 |
| 20260508072239 | 8 | 256 | 9.7 | 12.9 | 0.00 | 0.00 | 0.00 | 82 | 1012.5 |
| 20260508071737 | 8 | 241 | 9.7 | 11.3 | 0.00 | 0.00 | 0.00 | 81 | 1012.6 |
| 20260508071235 | 8 | 261 | 9.7 | 11.3 | 0.00 | 0.00 | 0.00 | 81 | 1012.5 |
| 20260508070732 | 8 | 241 | 11.3 | 22.5 | 0.00 | 0.00 | 0.00 | 79 | 1012.7 |
| 20260508070231 | 8 | 237 | 6.4 | 20.9 | 0.00 | 0.00 | 0.00 | 78 | 1012.6 |
| 20260508065727 | 8 | 241 | 12.9 | 25.7 | 0.00 | 0.00 | 0.00 | 77 | 1012.5 |
| 20260508065225 | 8 | 206 | 16.1 | 24.1 | 0.00 | 0.00 | 0.00 | 75 | 1012.5 |
| 20260508064723 | 8 | 241 | 8.0 | 20.9 | 0.00 | 0.00 | 0.00 | 72 | 1012.4 |
| 20260508064221 | 8 | 249 | 16.1 | 22.5 | 0.00 | 0.00 | 0.00 | 72 | 1012.4 |
| 20260508063718 | 8 | 261 | 6.4 | 8.0 | 0.00 | 0.00 | 0.00 | 73 | 1012.7 |
| 20260508063216 | 8 | 290 | 3.2 | 11.3 | 0.00 | 0.00 | 0.00 | 73 | 1012.6 |
| 20260508062713 | 8 | 250 | 8.0 | 11.3 | 0.00 | 0.00 | 0.00 | 73 | 1012.6 |
| 20260508062210 | 8 | 234 | 6.4 | 9.7 | 0.00 | 0.00 | 0.00 | 73 | 1012.6 |
| 20260508061707 | 8 | 292 | 3.2 | 4.8 | 0.00 | 0.00 | 0.00 | 74 | 1012.8 |
| 20260508061204 | 7 | 285 | 3.2 | 8.0 | 0.00 | 0.00 | 0.00 | 75 | 1012.8 |
| 20260508060702 | 8 | 304 | 1.6 | 1.6 | 0.00 | 0.00 | 0.00 | 77 | 1012.6 |
| 20260508060158 | 7 | 309 | 0.0 | 1.6 | 0.00 | 0.00 | 0.00 | 77 | 1012.8 |
| 20260508055653 | 7 | 308 | 0.0 | 1.6 | 0.00 | 0.00 | 0.00 | 77 | 1012.7 |
| 20260508055151 | 7 | 318 | 0.0 | 4.8 | 0.00 | 0.00 | 0.00 | 77 | 1012.5 |
| 20260508054647 | 7 | 313 | 0.0 | 1.6 | 0.00 | 0.00 | 0.00 | 77 | 1012.8 |
| 20260508054145 | 7 | 313 | 0.0 | 1.6 | 0.00 | 0.00 | 0.00 | 77 | 1013.0 |
| 20260508053642 | 7 | 302 | 1.6 | 1.6 | 0.00 | 0.00 | 0.00 | 77 | 1013.0 |
| 20260508053139 | 7 | 314 | 0.0 | 0.0 | 0.00 | 0.00 | 0.00 | 77 | 1012.9 |
| 20260508052636 | 7 | 312 | 0.0 | 0.0 | 0.00 | 0.00 | 0.00 | 77 | 1013.0 |
| 20260508052133 | 7 | 307 | 0.0 | 1.6 | 0.00 | 0.00 | 0.00 | 76 | 1012.9 |
| 20260508051629 | 8 | 319 | 0.0 | 0.0 | 0.00 | 0.00 | 0.00 | 75 | 1013.0 |
| 20260508051125 | 8 | 289 | 3.2 | 4.8 | 0.00 | 0.00 | 0.00 | 74 | 1013.0 |
| 20260508050621 | 8 | 313 | 0.0 | 3.2 | 0.00 | 0.00 | 0.00 | 75 | 1013.0 |
| 20260508050119 | 8 | 305 | 0.0 | 0.0 | 0.00 | 0.00 | 0.00 | 74 | 1013.0 |
| 20260508045615 | 8 | 313 | 0.0 | 0.0 | 0.00 | 0.00 | 0.00 | 74 | 1013.2 |
| 20260508045113 | 8 | 313 | 0.0 | 0.0 | 0.00 | 0.00 | 0.00 | 74 | 1013.3 |
| 20260508044610 | 8 | 257 | 3.2 | 4.8 | 0.00 | 0.00 | 0.00 | 73 | 1012.9 |
| 20260508044106 | 8 | 309 | 0.0 | 3.2 | 0.00 | 0.00 | 0.00 | 73 | 1013.2 |
| 20260508043602 | 8 | 305 | 1.6 | 3.2 | 0.00 | 0.00 | 0.00 | 72 | 1013.1 |
| 20260508043100 | 8 | 290 | 3.2 | 3.2 | 0.00 | 0.00 | 0.00 | 72 | 1013.1 |
| 20260508042557 | 8 | 228 | 4.8 | 4.8 | 0.00 | 0.00 | 0.00 | 72 | 1013.2 |
| 20260508042054 | 8 | 296 | 1.6 | 9.7 | 0.00 | 0.00 | 0.00 | 72 | 1013.0 |
| 20260508041550 | 8 | 261 | 4.8 | 4.8 | 0.00 | 0.00 | 0.00 | 71 | 1013.3 |
| 20260508041047 | 8 | 305 | 3.2 | 9.7 | 0.00 | 0.00 | 0.00 | 71 | 1013.2 |
| 20260508040543 | 8 | 257 | 4.8 | 9.7 | 0.00 | 0.00 | 0.00 | 72 | 1013.3 |
| 20260508040042 | 8 | 293 | 3.2 | 8.0 | 0.00 | 0.00 | 0.00 | 71 | 1013.1 |
| 20260508035538 | 8 | 259 | 8.0 | 12.9 | 0.00 | 0.00 | 0.00 | 71 | 1013.2 |
| 20260508035035 | 8 | 263 | 3.2 | 4.8 | 0.00 | 0.00 | 0.00 | 71 | 1013.2 |
| 20260508034532 | 8 | 231 | 4.8 | 8.0 | 0.00 | 0.00 | 0.00 | 71 | 1013.4 |
| 20260508034029 | 8 | 250 | 9.7 | 11.3 | 0.00 | 0.00 | 0.00 | 71 | 1013.3 |
| 20260508033527 | 8 | 257 | 4.8 | 8.0 | 0.00 | 0.00 | 0.00 | 70 | 1013.4 |
| 20260508033025 | 8 | 255 | 4.8 | 9.7 | 0.00 | 0.00 | 0.00 | 70 | 1013.5 |
| 20260508032521 | 8 | 249 | 14.5 | 16.1 | 0.00 | 0.00 | 0.00 | 68 | 1013.3 |
| 20260508032019 | 8 | 248 | 4.8 | 11.3 | 0.00 | 0.00 | 0.00 | 69 | 1013.3 |
| 20260508031516 | 7 | 273 | 3.2 | 9.7 | 0.00 | 0.00 | 0.00 | 72 | 1013.2 |
| 20260508031011 | 7 | 258 | 4.8 | 8.0 | 0.00 | 0.00 | 0.00 | 74 | 1013.4 |
| 20260508030508 | 5 | 276 | 3.2 | 3.2 | 0.00 | 0.00 | 0.00 | 85 | 1013.3 |
| 20260508030007 | 5 | 285 | 0.0 | 0.0 | 0.00 | 0.00 | 0.00 | 86 | 1013.5 |
| 20260508025502 | 5 | 305 | 0.0 | 0.0 | 0.00 | 0.00 | 0.00 | 86 | 1013.4 |
| 20260508024959 | 5 | 311 | 0.0 | 0.0 | 0.00 | 0.00 | 0.00 | 86 | 1013.4 |
| 20260508024455 | 5 | 294 | 0.0 | 0.0 | 0.00 | 0.00 | 0.00 | 84 | 1013.3 |
| 20260508023952 | 5 | 310 | 0.0 | 1.6 | 0.00 | 0.00 | 0.00 | 84 | 1013.5 |
| 20260508023449 | 5 | 311 | 0.0 | 1.6 | 0.00 | 0.00 | 0.00 | 84 | 1013.1 |
| 20260508022946 | 5 | 310 | 0.0 | 1.6 | 0.00 | 0.00 | 0.00 | 82 | 1013.3 |
| 20260508022441 | 5 | 311 | 0.0 | 0.0 | 0.00 | 0.00 | 0.00 | 82 | 1013.2 |
| 20260508021938 | 5 | 311 | 0.0 | 0.0 | 0.00 | 0.00 | 0.00 | 81 | 1013.1 |
| 20260508021435 | 5 | 311 | 0.0 | 0.0 | 0.00 | 0.00 | 0.00 | 81 | 1013.1 |
| 20260508020931 | 6 | 311 | 0.0 | 0.0 | 0.00 | 0.00 | 0.00 | 80 | 1013.1 |
| 20260508020429 | 6 | 311 | 0.0 | 0.0 | 0.00 | 0.00 | 0.00 | 79 | 1012.8 |
| 20260508015926 | 6 | 311 | 0.0 | 0.0 | 0.00 | 0.00 | 0.00 | 80 | 1012.7 |
| 20260508015424 | 6 | 311 | 0.0 | 0.0 | 0.00 | 0.00 | 0.00 | 77 | 1012.9 |
| 20260508014920 | 6 | 311 | 0.0 | 0.0 | 0.00 | 0.00 | 0.00 | 76 | 1013.0 |
| 20260508014417 | 6 | 311 | 0.0 | 0.0 | 0.00 | 0.00 | 0.00 | 75 | 1012.9 |
| 20260508013912 | 6 | 311 | 0.0 | 0.0 | 0.00 | 0.00 | 0.00 | 74 | 1012.9 |
| 20260508013408 | 6 | 311 | 0.0 | 0.0 | 0.00 | 0.00 | 0.00 | 72 | 1013.0 |
| 20260508012906 | 6 | 310 | 0.0 | 0.0 | 0.00 | 0.00 | 0.00 | 71 | 1012.9 |
| 20260508012403 | 7 | 311 | 0.0 | 0.0 | 0.00 | 0.00 | 0.00 | 70 | 1012.9 |
| 20260508011900 | 7 | 310 | 0.0 | 0.0 | 0.00 | 0.00 | 0.00 | 68 | 1012.6 |
| 20260508011359 | 7 | 310 | 0.0 | 1.6 | 0.00 | 0.00 | 0.00 | 67 | 1012.7 |
| 20260508010855 | 7 | 314 | 1.6 | 1.6 | 0.00 | 0.00 | 0.00 | 66 | 1012.8 |
| 20260508010353 | 7 | 310 | 0.0 | 1.6 | 0.00 | 0.00 | 0.00 | 65 | 1012.9 |
| 20260508005850 | 8 | 318 | 0.0 | 0.0 | 0.00 | 0.00 | 0.00 | 62 | 1012.6 |
| 20260508005346 | 8 | 318 | 0.0 | 0.0 | 0.00 | 0.00 | 0.00 | 61 | 1012.6 |
| 20260508004842 | 8 | 316 | 0.0 | 1.6 | 0.00 | 0.00 | 0.00 | 61 | 1012.9 |
| 20260508004339 | 8 | 314 | 0.0 | 0.0 | 0.00 | 0.00 | 0.00 | 57 | 1012.7 |
| 20260508003835 | 9 | 314 | 0.0 | 0.0 | 0.00 | 0.00 | 0.00 | 57 | 1012.6 |
| 20260508003333 | 10 | 309 | 1.6 | 1.6 | 0.00 | 0.00 | 0.00 | 55 | 1012.8 |
| 20260508002830 | 10 | 309 | 0.0 | 1.6 | 0.00 | 0.00 | 0.00 | 54 | 1012.6 |
| 20260508002326 | 10 | 304 | 1.6 | 3.2 | 0.00 | 0.00 | 0.00 | 53 | 1012.5 |
| 20260508001822 | 10 | 274 | 1.6 | 3.2 | 0.00 | 0.00 | 0.00 | 53 | 1012.3 |
| 20260508001319 | 10 | 294 | 3.2 | 4.8 | 0.00 | 0.00 | 0.00 | 52 | 1012.4 |
| 20260508000815 | 11 | 278 | 3.2 | 4.8 | 0.00 | 0.00 | 0.00 | 51 | 1012.5 |
| 20260508000312 | 11 | 288 | 4.8 | 8.0 | 0.00 | 0.00 | 0.00 | 51 | 1012.5 |
| 20260507235808 | 11 | 314 | 1.6 | 4.8 | 0.00 | 0.00 | 0.00 | 52 | 1012.3 |
| 20260507235307 | 11 | 303 | 3.2 | 16.1 | 0.00 | 0.00 | 0.00 | 50 | 1012.2 |
| 20260507234802 | 11 | 319 | 4.8 | 9.7 | 0.00 | 0.00 | 0.00 | 50 | 1012.4 |
| 20260507234259 | 11 | 300 | 4.8 | 9.7 | 0.00 | 0.00 | 0.00 | 51 | 1012.2 |
| 20260507233755 | 11 | 319 | 4.8 | 4.8 | 0.00 | 0.00 | 0.00 | 50 | 1012.2 |
| 20260507233253 | 11 | 289 | 4.8 | 11.3 | 0.00 | 0.00 | 0.00 | 51 | 1012.2 |
| 20260507232751 | 11 | 303 | 4.8 | 8.0 | 0.00 | 0.00 | 0.00 | 50 | 1012.3 |
| 20260507232247 | 11 | 259 | 6.4 | 11.3 | 0.00 | 0.00 | 0.00 | 49 | 1012.2 |
| 20260507231744 | 11 | 250 | 8.0 | 14.5 | 0.00 | 0.00 | 0.00 | 49 | 1012.2 |
| 20260507231241 | 11 | 312 | 4.8 | 11.3 | 0.00 | 0.00 | 0.00 | 48 | 1012.3 |
| 20260507230737 | 11 | 303 | 4.8 | 9.7 | 0.00 | 0.00 | 0.00 | 49 | 1012.2 |
| 20260507230235 | 11 | 286 | 4.8 | 11.3 | 0.00 | 0.00 | 0.00 | 48 | 1012.2 |
| 20260507225734 | 12 | 289 | 6.4 | 16.1 | 0.00 | 0.00 | 0.00 | 48 | 1012.5 |
| 20260507225231 | 12 | 255 | 8.0 | 12.9 | 0.00 | 0.00 | 0.00 | 48 | 1012.4 |
| 20260507224727 | 12 | 285 | 4.8 | 11.3 | 0.00 | 0.00 | 0.00 | 47 | 1012.4 |
| 20260507224224 | 12 | 254 | 8.0 | 16.1 | 0.00 | 0.00 | 0.00 | 47 | 1012.4 |
| 20260507223720 | 12 | 277 | 6.4 | 17.7 | 0.00 | 0.00 | 0.00 | 46 | 1012.5 |
| 20260507223217 | 12 | 266 | 9.7 | 12.9 | 0.00 | 0.00 | 0.00 | 46 | 1012.3 |
| 20260507222713 | 12 | 256 | 3.2 | 9.7 | 0.00 | 0.00 | 0.00 | 48 | 1012.2 |
| 20260507222210 | 12 | 249 | 8.0 | 11.3 | 0.00 | 0.00 | 0.00 | 48 | 1012.3 |
| 20260507221707 | 12 | 293 | 6.4 | 11.3 | 0.00 | 0.00 | 0.00 | 48 | 1012.5 |
| 20260507221203 | 12 | 327 | 12.9 | 17.7 | 0.00 | 0.00 | 0.00 | 47 | 1012.4 |
| 20260507220700 | 12 | 250 | 11.3 | 24.1 | 0.00 | 0.00 | 0.00 | 49 | 1012.6 |
| 20260507220158 | 13 | 292 | 3.2 | 8.0 | 0.00 | 0.00 | 0.00 | 48 | 1012.6 |
| 20260507215654 | 12 | 291 | 8.0 | 16.1 | 0.00 | 0.00 | 0.00 | 49 | 1012.3 |
| 20260507215151 | 12 | 306 | 4.8 | 11.3 | 0.00 | 0.00 | 0.00 | 49 | 1012.2 |
| 20260507214648 | 12 | 278 | 8.0 | 12.9 | 0.00 | 0.00 | 0.00 | 49 | 1012.3 |
| 20260507214145 | 12 | 316 | 4.8 | 12.9 | 0.00 | 0.00 | 0.00 | 53 | 1012.2 |
| 20260507213641 | 11 | 276 | 6.4 | 16.1 | 0.00 | 0.00 | 0.00 | 55 | 1012.3 |
| 20260507213138 | 11 | 283 | 11.3 | 20.9 | 0.00 | 0.00 | 0.00 | 53 | 1012.2 |
| 20260507212634 | 12 | 322 | 8.0 | 14.5 | 0.00 | 0.00 | 0.00 | 53 | 1012.2 |
| 20260507212131 | 12 | 311 | 6.4 | 16.1 | 0.00 | 0.00 | 0.00 | 55 | 1012.3 |
| 20260507211628 | 12 | 279 | 11.3 | 20.9 | 0.00 | 0.00 | 0.00 | 55 | 1012.3 |
| 20260507211123 | 12 | 273 | 8.0 | 17.7 | 0.00 | 0.00 | 0.00 | 57 | 1011.9 |
| 20260507210622 | 12 | 278 | 8.0 | 11.3 | 0.00 | 0.00 | 0.00 | 57 | 1012.1 |
| 20260507210118 | 12 | 299 | 4.8 | 8.0 | 0.00 | 0.00 | 0.00 | 57 | 1012.0 |
| 20260507205615 | 11 | 256 | 12.9 | 12.9 | 0.00 | 0.00 | 0.00 | 60 | 1011.9 |
| 20260507205111 | 12 | 251 | 8.0 | 22.5 | 0.00 | 0.00 | 0.00 | 58 | 1012.1 |
| 20260507204607 | 12 | 296 | 3.2 | 17.7 | 0.00 | 0.00 | 0.00 | 59 | 1011.9 |
| 20260507204105 | 11 | 304 | 6.4 | 14.5 | 0.00 | 0.00 | 0.00 | 59 | 1011.6 |
| 20260507203603 | 11 | 309 | 1.6 | 12.9 | 0.00 | 0.00 | 0.00 | 60 | 1011.6 |
| 20260507203100 | 11 | 340 | 12.9 | 17.7 | 0.00 | 0.00 | 0.00 | 58 | 1011.9 |
| 20260507202555 | 12 | 293 | 6.4 | 20.9 | 0.00 | 0.00 | 0.00 | 53 | 1011.6 |
| 20260507202052 | 12 | 245 | 11.3 | 17.7 | 0.00 | 0.00 | 0.00 | 53 | 1011.6 |
| 20260507201547 | 13 | 256 | 11.3 | 20.9 | 0.00 | 0.00 | 0.00 | 51 | 1011.4 |
| 20260507201044 | 13 | 239 | 16.1 | 29.0 | 0.00 | 0.00 | 0.00 | 49 | 1011.5 |
| 20260507200539 | 12 | 268 | 8.0 | 24.1 | 0.00 | 0.00 | 0.00 | 52 | 1011.4 |
| 20260507200036 | 12 | 235 | 11.3 | 22.5 | 0.00 | 0.00 | 0.00 | 53 | 1011.7 |
| 20260507195533 | 12 | 288 | 8.0 | 16.1 | 0.00 | 0.00 | 0.00 | 54 | 1011.7 |
| 20260507195031 | 12 | 269 | 19.3 | 25.7 | 0.00 | 0.00 | 0.00 | 53 | 1011.7 |
| 20260507194527 | 12 | 282 | 4.8 | 11.3 | 0.00 | 0.00 | 0.00 | 52 | 1011.9 |
| 20260507194023 | 12 | 248 | 9.7 | 16.1 | 0.00 | 0.00 | 0.00 | 52 | 1011.7 |
| 20260507193520 | 13 | 251 | 12.9 | 24.1 | 0.00 | 0.00 | 0.00 | 50 | 1012.0 |
| 20260507193017 | 13 | 240 | 12.9 | 24.1 | 0.00 | 0.00 | 0.00 | 48 | 1011.9 |
| 20260507192513 | 12 | 265 | 8.0 | 12.9 | 0.00 | 0.00 | 0.00 | 51 | 1011.9 |
| 20260507192010 | 13 | 296 | 4.8 | 16.1 | 0.00 | 0.00 | 0.00 | 52 | 1012.0 |
| 20260507191506 | 13 | 298 | 6.4 | 9.7 | 0.00 | 0.00 | 0.00 | 51 | 1011.7 |
| 20260507191003 | 13 | 302 | 8.0 | 12.9 | 0.00 | 0.00 | 0.00 | 53 | 1011.7 |
| 20260507190500 | 12 | 270 | 6.4 | 14.5 | 0.00 | 0.00 | 0.00 | 53 | 1012.0 |
| 20260507185959 | 13 | 263 | 4.8 | 11.3 | 0.00 | 0.00 | 0.00 | 51 | 1011.7 |
| 20260507185456 | 13 | 288 | 8.0 | 20.9 | 0.00 | 0.00 | 0.00 | 51 | 1012.0 |
| 20260507184953 | 12 | 248 | 6.4 | 11.3 | 0.00 | 0.00 | 0.00 | 52 | 1011.7 |
| 20260507184451 | 12 | 264 | 8.0 | 16.1 | 0.00 | 0.00 | 0.00 | 53 | 1012.0 |
| 20260507183948 | 12 | 319 | 6.4 | 22.5 | 0.00 | 0.00 | 0.00 | 51 | 1012.0 |
| 20260507183444 | 13 | 250 | 11.3 | 12.9 | 0.00 | 0.00 | 0.00 | 51 | 1011.9 |
| 20260507182942 | 12 | 269 | 8.0 | 12.9 | 0.00 | 0.00 | 0.00 | 53 | 1012.1 |
| 20260507182438 | 12 | 283 | 6.4 | 12.9 | 0.00 | 0.00 | 0.00 | 55 | 1012.1 |
| 20260507181934 | 12 | 278 | 6.4 | 17.7 | 0.00 | 0.00 | 0.00 | 55 | 1012.1 |
| 20260507181430 | 12 | 236 | 9.7 | 24.1 | 0.00 | 0.00 | 0.00 | 53 | 1012.3 |
| 20260507180927 | 13 | 264 | 8.0 | 14.5 | 0.00 | 0.00 | 0.00 | 50 | 1012.0 |
| 20260507180424 | 13 | 234 | 11.3 | 22.5 | 0.00 | 0.00 | 0.00 | 52 | 1012.0 |
| 20260507175920 | 12 | 244 | 6.4 | 11.3 | 0.00 | 0.00 | 0.00 | 56 | 1012.1 |
| 20260507175417 | 12 | 268 | 6.4 | 14.5 | 0.00 | 0.00 | 0.00 | 54 | 1012.1 |
| 20260507174914 | 12 | 248 | 12.9 | 24.1 | 0.00 | 0.00 | 0.00 | 53 | 1012.4 |
| 20260507174412 | 12 | 265 | 9.7 | 12.9 | 0.00 | 0.00 | 0.00 | 52 | 1012.3 |
| 20260507173909 | 12 | 234 | 12.9 | 16.1 | 0.00 | 0.00 | 0.00 | 55 | 1012.2 |
| 20260507173406 | 12 | 311 | 4.8 | 11.3 | 0.00 | 0.00 | 0.00 | 54 | 1012.2 |
| 20260507172902 | 12 | 306 | 9.7 | 14.5 | 0.00 | 0.00 | 0.00 | 55 | 1012.3 |
| 20260507172359 | 13 | 249 | 9.7 | 12.9 | 0.00 | 0.00 | 0.00 | 53 | 1012.1 |
| 20260507171855 | 13 | 256 | 14.5 | 17.7 | 0.00 | 0.00 | 0.00 | 51 | 1012.3 |
| 20260507171352 | 12 | 307 | 4.8 | 17.7 | 0.00 | 0.00 | 0.00 | 53 | 1012.2 |
| 20260507170849 | 12 | 298 | 8.0 | 11.3 | 0.00 | 0.00 | 0.00 | 54 | 1012.5 |
| 20260507170345 | 12 | 258 | 6.4 | 11.3 | 0.00 | 0.00 | 0.00 | 54 | 1012.2 |
| 20260507165841 | 12 | 282 | 4.8 | 9.7 | 0.00 | 0.00 | 0.00 | 54 | 1012.3 |
| 20260507165337 | 12 | 249 | 8.0 | 12.9 | 0.00 | 0.00 | 0.00 | 52 | 1012.2 |
| 20260507164834 | 12 | 286 | 4.8 | 11.3 | 0.00 | 0.00 | 0.00 | 52 | 1012.3 |
| 20260507164331 | 12 | 271 | 6.4 | 17.7 | 0.00 | 0.00 | 0.00 | 52 | 1012.5 |
| 20260507163828 | 12 | 279 | 14.5 | 17.7 | 0.00 | 0.00 | 0.00 | 55 | 1012.3 |
| 20260507163325 | 12 | 255 | 6.4 | 11.3 | 0.00 | 0.00 | 0.00 | 54 | 1012.2 |
| 20260507162821 | 12 | 290 | 4.8 | 9.7 | 0.00 | 0.00 | 0.00 | 53 | 1012.4 |
| 20260507162317 | 12 | 260 | 8.0 | 22.5 | 0.00 | 0.00 | 0.00 | 52 | 1012.6 |
| 20260507161815 | 12 | 257 | 8.0 | 20.9 | 0.00 | 0.00 | 0.00 | 55 | 1012.5 |
| 20260507161311 | 12 | 256 | 9.7 | 16.1 | 0.00 | 0.00 | 0.00 | 54 | 1012.6 |
| 20260507160808 | 12 | 232 | 9.7 | 16.1 | 0.00 | 0.00 | 0.00 | 55 | 1012.4 |
| 20260507160303 | 12 | 215 | 9.7 | 22.5 | 0.00 | 0.00 | 0.00 | 55 | 1012.4 |
| 20260507155759 | 12 | 298 | 4.8 | 11.3 | 0.00 | 0.00 | 0.00 | 54 | 1012.4 |
| 20260507155255 | 11 | 284 | 9.7 | 12.9 | 0.00 | 0.00 | 0.00 | 57 | 1012.5 |
| 20260507154752 | 12 | 280 | 6.4 | 9.7 | 0.00 | 0.00 | 0.00 | 52 | 1012.6 |
| 20260507154250 | 12 | 275 | 8.0 | 16.1 | 0.00 | 0.00 | 0.00 | 56 | 1012.6 |
| 20260507153746 | 12 | 321 | 8.0 | 11.3 | 0.00 | 0.00 | 0.00 | 53 | 1012.5 |
| 20260507153243 | 12 | 279 | 4.8 | 9.7 | 0.00 | 0.00 | 0.00 | 55 | 1012.5 |
| 20260507152739 | 12 | 227 | 9.7 | 16.1 | 0.00 | 0.00 | 0.00 | 53 | 1012.5 |
| 20260507152236 | 11 | 227 | 9.7 | 14.5 | 0.00 | 0.00 | 0.00 | 56 | 1012.7 |
| 20260507151732 | 11 | 290 | 6.4 | 11.3 | 0.00 | 0.00 | 0.00 | 57 | 1012.4 |
| 20260507151228 | 10 | 268 | 8.0 | 9.7 | 0.00 | 0.00 | 0.00 | 60 | 1012.7 |
| 20260507150725 | 11 | 271 | 8.0 | 14.5 | 0.00 | 0.00 | 0.00 | 59 | 1012.6 |
| 20260507150222 | 11 | 257 | 6.4 | 16.1 | 0.00 | 0.00 | 0.00 | 63 | 1012.5 |
| 20260507145718 | 11 | 294 | 4.8 | 12.9 | 0.00 | 0.00 | 0.00 | 63 | 1012.7 |
| 20260507145215 | 11 | 262 | 3.2 | 3.2 | 0.00 | 0.00 | 0.00 | 60 | 1012.5 |
| 20260507144712 | 11 | 241 | 9.7 | 14.5 | 0.00 | 0.00 | 0.00 | 63 | 1012.5 |
| 20260507144210 | 11 | 248 | 4.8 | 9.7 | 0.00 | 0.00 | 0.00 | 60 | 1012.7 |
| 20260507143706 | 12 | 299 | 3.2 | 3.2 | 0.00 | 0.00 | 0.00 | 61 | 1012.8 |
| 20260507143203 | 11 | 333 | 1.6 | 8.0 | 0.00 | 0.00 | 0.00 | 62 | 1012.6 |
| 20260507142659 | 12 | 358 | 0.0 | 3.2 | 0.00 | 0.00 | 0.00 | 60 | 1012.4 |
| 20260507142155 | 11 | 10 | 0.0 | 8.0 | 0.00 | 0.00 | 0.00 | 59 | 1012.7 |
| 20260507141652 | 11 | 306 | 3.2 | 9.7 | 0.00 | 0.00 | 0.00 | 57 | 1012.6 |
| 20260507141149 | 11 | 215 | 8.0 | 9.7 | 0.00 | 0.00 | 0.00 | 63 | 1012.6 |
| 20260507140645 | 11 | 307 | 4.8 | 9.7 | 0.00 | 0.00 | 0.00 | 57 | 1012.8 |
| 20260507140143 | 11 | 281 | 4.8 | 4.8 | 0.00 | 0.00 | 0.00 | 60 | 1012.7 |
| 20260507135640 | 11 | 328 | 3.2 | 4.8 | 0.00 | 0.00 | 0.00 | 61 | 1012.7 |
| 20260507135137 | 11 | 308 | 3.2 | 3.2 | 0.00 | 0.00 | 0.00 | 63 | 1012.9 |
| 20260507134633 | 10 | 25 | 4.8 | 8.0 | 0.00 | 0.00 | 0.00 | 62 | 1013.0 |
| 20260507134130 | 11 | 235 | 4.8 | 4.8 | 0.00 | 0.00 | 0.00 | 64 | 1013.0 |
| 20260507133625 | 10 | 301 | 4.8 | 8.0 | 0.00 | 0.00 | 0.00 | 65 | 1013.0 |
| 20260507133123 | 10 | 243 | 4.8 | 8.0 | 0.00 | 0.00 | 0.00 | 66 | 1013.1 |
| 20260507132620 | 10 | 298 | 4.8 | 8.0 | 0.00 | 0.00 | 0.00 | 68 | 1013.1 |
| 20260507132116 | 10 | 26 | 0.0 | 4.8 | 0.00 | 0.00 | 0.00 | 68 | 1013.2 |
| 20260507131613 | 9 | 284 | 4.8 | 8.0 | 0.00 | 0.00 | 0.00 | 72 | 1013.2 |
| 20260507131111 | 8 | 304 | 3.2 | 11.3 | 0.00 | 0.00 | 0.00 | 75 | 1013.2 |
| 20260507130607 | 8 | 303 | 3.2 | 8.0 | 0.00 | 0.00 | 0.00 | 73 | 1013.2 |
| 20260507130106 | 8 | 254 | 4.8 | 9.7 | 0.00 | 0.00 | 0.00 | 73 | 1013.3 |
| 20260507125604 | 8 | 253 | 3.2 | 4.8 | 0.00 | 0.00 | 0.00 | 76 | 1013.4 |
| 20260507125101 | 8 | 289 | 3.2 | 8.0 | 0.00 | 0.00 | 0.00 | 77 | 1013.3 |
| 20260507124557 | 8 | 268 | 4.8 | 8.0 | 0.00 | 0.00 | 0.00 | 78 | 1013.2 |
| 20260507124055 | 7 | 232 | 8.0 | 9.7 | 0.00 | 0.00 | 0.00 | 80 | 1013.2 |
| 20260507123553 | 7 | 289 | 4.8 | 8.0 | 0.00 | 0.00 | 0.00 | 80 | 1013.3 |
| 20260507123049 | 7 | 294 | 4.8 | 9.7 | 0.00 | 0.00 | 0.00 | 80 | 1013.2 |
| 20260507122545 | 8 | 278 | 8.0 | 9.7 | 0.00 | 0.00 | 0.00 | 80 | 1013.2 |
| 20260507122041 | 7 | 276 | 4.8 | 11.3 | 0.00 | 0.00 | 0.00 | 80 | 1013.1 |
| 20260507121537 | 7 | 331 | 1.6 | 8.0 | 0.00 | 0.00 | 0.00 | 81 | 1012.8 |
| 20260507121033 | 7 | 312 | 4.8 | 8.0 | 0.00 | 0.00 | 0.00 | 80 | 1013.1 |
| 20260507120529 | 7 | 314 | 3.2 | 4.8 | 0.00 | 0.00 | 0.00 | 81 | 1013.0 |
| 20260507120026 | 7 | 240 | 4.8 | 9.7 | 0.00 | 0.00 | 0.00 | 82 | 1012.9 |
| 20260507115522 | 7 | 25 | 1.6 | 4.8 | 0.00 | 0.00 | 0.00 | 82 | 1013.0 |
| 20260507115018 | 7 | 339 | 3.2 | 8.0 | 0.00 | 0.00 | 0.00 | 82 | 1012.9 |
| 20260507114514 | 6 | 234 | 4.8 | 9.7 | 0.00 | 0.00 | 0.00 | 83 | 1013.0 |
| 20260507114012 | 6 | 343 | 1.6 | 11.3 | 0.00 | 0.00 | 0.00 | 84 | 1013.0 |
| 20260507113509 | 5 | 208 | 4.8 | 4.8 | 0.00 | 0.00 | 0.00 | 89 | 1013.0 |
| 20260507113006 | 5 | 322 | 1.6 | 1.6 | 0.00 | 0.00 | 0.00 | 94 | 1013.0 |
| 20260507112503 | 5 | 359 | 0.0 | 3.2 | 0.00 | 0.00 | 0.00 | 96 | 1013.1 |
| 20260507112000 | 4 | 358 | 0.0 | 0.0 | 0.00 | 0.00 | 0.00 | 98 | 1013.0 |
| 20260507111457 | 3 | 354 | 0.0 | 3.2 | 0.00 | 0.00 | 0.00 | 98 | 1013.1 |
| 20260507110953 | 3 | 340 | 0.0 | 0.0 | 0.00 | 0.00 | 0.00 | 99 | 1012.9 |
| 20260507110450 | 3 | 328 | 0.0 | 1.6 | 0.00 | 0.00 | 0.00 | 99 | 1013.1 |